Regional Weather Roundup
Issued by NWS Cleveland, OH

Home | Current Version | Previous Version | Graphics & Text | Print | Product List | Glossary On
Versions: 1 2 3 4 5 6 7 8 9 10 11 12 13 14 15 16 17 18 19 20 21 22 23 24 25 26 27 28 29 30 31 32 33 34 35 36 37 38 39 40 41 42 43 44 45 46 47 48 49 50
834
ASUS41 KCLE 042302
RWRCLE
OHIO REGIONAL WEATHER ROUNDUP
NATIONAL WEATHER SERVICE CLEVELAND, OH
600 PM EST SUN DEC 04 2016

NOTE: "FAIR" INDICATES FEW OR NO CLOUDS BELOW 12,000 FEET WITH NO
SIGNIFICANT WEATHER AND/OR OBSTRUCTIONS TO VISIBILITY.

OHZ001>008-015>018-024>027-034-035-043-044-050000-
   NORTHWEST OHIO

CITY           SKY/WX    TMP DP  RH WIND       PRES   REMARKS
DEFIANCE       LGT SNOW  34  31  88 E10       29.92F VSB 1   WCI  26
FINDLAY        LGT SNOW  35  30  82 E6        29.95F
TOLEDO EXPRESS LGT SNOW  35  32  88 E9        29.96F FOG     WCI  28
TOLEDO EXEC    CLOUDY    38  31  76 E7        29.98F
LIMA           LGT SNOW  33  33 100 E9        29.92F FOG     WCI  25
$$

OHZ009>014-019>023-028>033-038-089-050000-
   NORTHEAST OHIO

CITY           SKY/WX    TMP DP  RH WIND       PRES   REMARKS
CLE-HOPKINS    CLOUDY    41  27  57 SE12      29.99F
CLE-LAKEFRONT  CLOUDY    41  28  60 E10       29.98F
CUY CO. ARPT   CLOUDY    41  32  70 SE10      29.99F
LORAIN-ELYRIA  CLOUDY    38  27  64 SE7       29.97F
ASHTABULA      CLOUDY    39  30  70 SE8       30.04S
AKRON-CANTON   CLOUDY    40  27  59 E12       29.97F
WOOSTER        CLOUDY    38  27  64 E10       29.96F
MANSFIELD      CLOUDY    38  27  64 E13       29.92F
YOUNGSTOWN     CLOUDY    38  28  67 E9        30.01S
$$

OHZ042-051>053-060>062-070>072-077>081-050000-
  SOUTHWEST OHIO

CITY           SKY/WX    TMP DP  RH WIND       PRES   REMARKS
CINC-COVINGTON LGT RAIN  40  39  97 E6        29.90F FOG
CINC-LUNKEN    LGT RAIN  41  40  96 CALM      29.93F FOG
HAMILTON       LGT RAIN  40  37  89 E5        29.92F FOG
DAYTON         LGT RAIN  36  35  96 SE8       29.91F FOG
WRIGHT-PAT AFB LGT RAIN  37  37 100 E6        29.92F FOG
DAYTON GENERAL LGT RAIN  37  34  89 E7        29.90F FOG
WILMINGTON     LGT RAIN  37  35  92 SE6       29.92S FOG
$$

OHZ036-037-039>041-045>050-054>059-063>069-073>076-082>088-050000-
  CENTRAL AND SOUTHEAST OHIO

CITY           SKY/WX    TMP DP  RH WIND       PRES   REMARKS
COLUMBUS       LGT RAIN  39  34  82 SE5       29.94S
OSU AIRPORT    LGT RAIN  38  33  82 SE7       29.93F
BOLTON FIELD   RAIN      37  34  87 SE6       29.94F
RICKENBACK AFB RAIN      38  33  84 SE5       29.95R
NEWARK         LGT RAIN  40  30  67 SE7       29.94F
MARION         CLOUDY    39  29  67 SE5       29.95R
LANCASTER      RAIN      38  34  85 SE5       29.95S FOG
ZANESVILLE     LGT RAIN  40  29  64 E7        29.94F
NEW PHILLY     CLOUDY    40  29  64 SE12      29.97F
$$




USA.gov is the U.S. government's official web portal to all federal, state and local government web resources and services.